Карточка аэропорта UUYY

Внимание!
Информация на этой странице в стадии наполнения.
Если вы не увидели какой-то информации, или заметили неточность - пожалуйста сообщите нам!
Спасибо!
Команда RU-STAFF
Название аэропортаСыктывкар
Название аэропорта (англ.)Syktyvkar
Превышение339 ft. (103.3 m.)
Координаты61°38.502', 50°50.298'
Высота перехода3000 feet
Эшелон переходаQNH>=1013hPa:FL040; QNH<1013hPa:FL050; QNH<977hPa:FL060
Коды ответчика3130-3134, 5752-5757, 5770-5777, 6701-6717
Зона ОрВДСанкт-Петербург РПИ (ULLL)
Данные METARUUYY 251800Z 22005MPS 9999 OVC013 00/M01 Q1024 R18/29//51 NOSIG RMK QFE760/1013
Проноз погоды (TAF)UUYY 251700Z 2518/2618 21006G14MPS 6000 -SHSN FEW011 BKN017CB TEMPO 2518/2521 1000 SHSN FZDZ BKN011 BKN016CB TEMPO 2521/2615 -FZDZ BKN011 BKN016CB
NOTAMshow/hide NOTAM
AWOS   TABLE

Информация о ВПП

ВПП Длина ВПП (м.) Покрытие Курс ВПП Частота ILS
012500Асфальтобетон6108.3
192500Асфальтобетон186111.7

Диспетчерские позиции

Позывной Наименование органа УВД Частота
UUYY_R_APPСивкар-Круг124.600
UUYY_TWRСивкар-Старт124.600



Спутниковое изображение